Погода в Палевицах

Россия / Республика Коми     61°59′42″N   50°22′00″E
темп.,
°C
ветер,
м/с
пор.,
м/с
влажн.,
%
обл.,
%
осадки,
мм/ч
давл.,
гПа
погр.,
м
8 марта, пн
пн800:00−18в239899 0.1 100367
03:00−19всв2599100 0.1 1003122
06:00−19всв3798100 0.1 1002202
09:00−18св3695100 0.1 1002295
12:00−14св4690100 0.0 1003491
15:00−14св4788100 0.1 1003621
18:00−17ссв3994100 0.0 1005423
21:00−21ссв389798 0.1 1007252
9 марта, вт
вт900:00−25ссв389784 0.0 1009241
03:00−28ссв389669 0.0 1011237
06:00−31с379717 0.0 1013214
09:00−28с359220 0.0 1015316
12:00−24с358947 0.0 1016424
15:00−21с358848 0.0 1017514
18:00−25с229676 0.0 101820
21:00−27ссз229738 0.0 102119
10 марта, ср
ср1000:00−29сз12970 0.0 102119
03:00−30зсз12970 0.0 102119
06:00−30зсз22983 0.0 102119
09:00−24з24949 0.0 1021236
12:00−19з359082 0.0 1020390
15:00−15з489088 0.0 1019431
18:00−15з4129197 0.0 1017578
21:00−13зсз4129399 0.2 1015652
11 марта, чт
чт1100:00−11зсз41292100 0.3 1014759
03:00−8сз51387100 0.4 1014999
06:00−11сз51476100 0.0 1015682
09:00−11сз51270100 0.0 1016733
12:00−10зсз5107788 0.0 1016673
15:00−9зсз5107777 0.0 1016854
18:00−12зсз5138320 0.0 1016700
21:00−12зсз4138759 0.0 1017716
12 марта, пт
пт1200:00−12з41388100 0.0 1016651
03:00−12з41287100 0.0 1015640
06:00−12з41190100 0.0 1015614
09:00−11з51089100 0.0 1015621
12:00−9з5989100 0.1 1015643
15:00−7з51089100 0.1 1015648
18:00−8з41291100 0.0 1016627
21:00−8зюз41391100 0.1 1017568